Flag for Chad Weather past 2 weeks in Ndjamena, Chad

Now
104 °F

Clear.


Feels Like: 99 °F
Forecast: 81 / 106 °F
Wind: 7 mph from Northeast

Location: Ndjamena

Current Time: May 5, 2015 at 6:20:09 PM

Latest Report: May 5, 2015 at 5:00 PM


Visibility: 5 mi

Pressure: 29.68 "Hg

Humidity: 12%

Dew point: 41 °F

Location of NdjamenaLocation

Historic Weather in Ndjamena — Graph

°F

Ndjamena temperature yesterday

Maximum temperature yesterday: 106 °F (at 3:00 PM)
Minimum temperature yesterday: 82 °F (at 6:00 AM)
Average temperature yesterday: 94 °F

Past Weeks' High & Low Weather Summary

 TemperatureHumidityPressure
High111 °F (Apr 23, 3:00 PM)70% (May 4, 6:00 AM)29.89 "Hg (May 4, 6:00 AM)
Low70 °F (Apr 21, 5:00 AM)8% (Apr 28, 12:00 PM)29.59 "Hg (May 2, 4:00 PM)
Average93 °F21%29.77 "Hg
* Reported Apr 20 5:00 PM — May 5 5:00 PM, Ndjamena, Weather by CustomWeather, © 2015

Note: Actual official high and low records may vary slightly from our data, if they occured in-between our weather recording intervals... More about our weather records

Advertising

Ndjamena weather history for previous 24 hours

 ConditionsComfort  
Time TempWeatherWind HumidityBarometerVisibility
5:00 PM
Tue, May 5
104 °FClear.7 mph12%29.68 "Hg5 mi
4:00 PM106 °FPassing clouds.13 mph12%29.68 "HgN/A
3:00 PM108 °FPassing clouds.15 mph10%29.71 "HgN/A
2:00 PM108 °FPassing clouds.14 mph11%29.74 "HgN/A
1:00 PM108 °FPassing clouds.13 mph10%29.77 "HgN/A
12:00 PM106 °FPassing clouds.13 mph12%29.77 "HgN/A
11:00 AM104 °FPassing clouds.13 mph13%29.80 "HgN/A
10:00 AM100 °FPassing clouds.14 mph15%29.83 "HgN/A
9:00 AM97 °FClear.15 mph16%29.83 "Hg5 mi
8:00 AM93 °FClear.16 mph17%29.80 "Hg5 mi
7:00 AM84 °FClear.3 mph23%29.77 "Hg5 mi
6:00 AM79 °FSunny.No wind28%29.77 "Hg10 mi
5:00 AM79 °FClear.No wind28%29.77 "Hg10 mi
4:00 AM81 °FClear.No wind28%29.74 "Hg10 mi
3:00 AM84 °FClear.No wind25%29.74 "Hg10 mi
2:00 AM86 °FClear.5 mph27%29.74 "Hg10 mi
1:00 AM86 °FClear.No wind31%29.74 "Hg10 mi
12:00 AM90 °FClear.3 mph27%29.77 "Hg10 mi
11:00 PM
Mon, May 4
91 °FClear.No wind34%29.77 "Hg10 mi
10:00 PM91 °FClear.No wind38%29.77 "Hg10 mi
9:00 PM93 °FClear.No wind36%29.74 "Hg10 mi
8:00 PM95 °FClear.No wind34%29.74 "Hg10 mi
7:00 PM97 °FClear.No wind30%29.71 "Hg4 mi
6:00 PM102 °FSunny.No wind27%29.71 "Hg10 mi
Weather by CustomWeather, © 2015

See weather overviewHow to use our weather pages